Find Starlink 30245

NORAD ID: 57612 Int'l Des: 2023-119 Owner: SPXS Country: US Constellation: starlink operational
LEOCIRCULAR

当前视图

正在加载3D地球...

About Starlink 30245

Starlink 30245 (NORAD 57612) is a starlink constellation satellite (v2 mini) launched Aug 11, 2023 by SPXS of US. It operates in LEO, CIRCULAR orbit with a mass of 730.00 kg.

即将过境

Passes for default location (London). Set your location on the main map for personalized predictions.

高度历史

Loading altitude history...

两行轨道根数

1 57612U 23119L 26249.11082109 -.00002661 00000-0 -87238-4 0 9991
2 57612 43.0015 142.2952 0001109 277.7339 82.3387 15.27565299170684
Epoch: Sep 6, 2026 • Age: 13 hours

当前状态

高度 483.1 km
远地点 / 近地点 N/A
速度 7.63 km/s
星下点 23.33°N, 49.57°W
发射日期 Aug 11, 2023
运行时间 3 years
类型 internet

技术详情

分类 Payload
质量 730.00 kg
干质量 700.00 kg
总质量 730.00 kg
长度 0.30 m
直径 4.10 m
跨度 29.00 m
形状 Box + pan
制造商 SPXS
平台类型 Starlink V2M
阶段状态 In Orbit
所有者/国家 SPXS/US

Most Searched